Regional Weather Roundup
Issued by NWS Northern Indiana

Home | Current Version | Previous Version | Text Only | Print | Product List | Glossary Off
Versions: 1 2 3 4 5 6 7 8 9 10 11 12 13 14 15 16 17 18 19 20 21 22 23 24 25 26 27 28 29 30 31 32 33 34 35 36 37 38 39 40 41 42 43 44 45 46 47 48 49 50

000
ASUS43 KIWX 010910
RWRIWX

KIWX WEATHER ROUNDUP
NATIONAL WEATHER SERVICE NORTHERN INDIANA
500 AM EDT WED OCT 01 2014

NOTE: "FAIR" INDICATES FEW OR NO CLOUDS BELOW 12,000 FEET WITH NO
SIGNIFICANT WEATHER AND/OR OBSTRUCTIONS TO VISIBILITY.

* THESE STATIONS ARE NOT UNDER NWS QUALITY CONTROL. THEY ALSO MAY NOT
  REPORT WEATHER SUCH AS PRECIPITATION OR FOG.

INZ001>027-011000-
NORTHERN INDIANA

CITY           SKY/WX    TMP DP  RH WIND       PRES   REMARKS
GARY*          CLEAR     46  43  91 CALM      30.02R
VALPARAISO     CLEAR     45  43  93 NE3       30.01R
MICHIGAN CITY* CLOUDY    50  50 100 CALM      30.02R
LAPORTE*       CLOUDY    52  52  99 CALM      30.01S
KNOX*          PTCLDY    40  39  93 CALM      30.00S
SOUTH BEND     NOT AVBL
MONTICELLO*    FAIR      46  45  99 CALM      30.00R
LOGANSPORT*      N/A     41  39  93 CALM      30.01S FOG
ROCHESTER*     CLEAR     46  46 100 CALM      30.01R
WARSAW*        MOCLDY    50  48  93 E6        30.01S
ANGOLA*        CLOUDY    52  48  87 E3        30.02S
FORT WAYNE     PTCLDY    47  45  93 E3        30.02S
HUNTINGTON*    CLEAR     46  46  98 CALM      30.00S
PERU/GRISSOM   CLEAR     46  46 100 E5        30.00R
MARION*        CLEAR     42  42  98 CALM      30.01R

$$
INZ028>050-011000-
CENTRAL INDIANA

CITY           SKY/WX    TMP DP  RH WIND       PRES   REMARKS
LAFAYETTE      CLEAR     46  44  93 NE5       29.99S
KOKOMO*        CLEAR     43  39  87 CALM      30.01R
MUNCIE*        FOG       42  41  96 E3        30.00S VSB 1/2
INDIANAPOLIS   CLEAR     50  45  83 E6        29.99R

$$
MIZ043>046-050>051-056>058-064>065-071>073-077>080-011000-
SOUTHWEST LOWER MICHIGAN

CITY           SKY/WX    TMP DP  RH WIND       PRES   REMARKS
BATTLE CREEK   CLOUDY    52  48  86 E3        30.03S
COLDWATER*     CLOUDY    53  48  84 CALM      30.02S
HILLSDALE*     CLOUDY    51  51 100 CALM      30.02S
HOLLAND        CLOUDY    54  48  80 E5        30.03
GRAND RAPIDS   CLOUDY    53  50  89 NE6       30.03F
KALAMAZOO      CLOUDY    52  46  80 SE5       30.03F
STURGIS*       CLOUDY    52  48  87 NE5       30.01S
THREE RIVERS*  CLOUDY    53  48  83 E3        30.02S

$$
OHZ001>008-015>018-024>025-011000-
NORTHWEST OHIO

CITY           SKY/WX    TMP DP  RH WIND       PRES   REMARKS
WAUSEON*       CLOUDY    48  48 100 CALM      30.02S
DEFIANCE       MOCLDY    51  47  86 NE6       30.02S
FINDLAY        CLOUDY    54  49  83 N7        30.00S
TOLEDO EXPRESS CLEAR     48  46  93 CALM      30.01F
TOLEDO METCALF PTCLDY    49  46  90 NW5       30.02S
LIMA           PTCLDY    51  49  92 NE3       30.00S

$$
AND FOR LAKE MICHIGAN COASTAL AND OPEN LAKE BUOY OBSERVATIONS

STATION/POSITION TEMP    WIND        PRES    VSBY  WAVE
                 AIR SEA DIR/SP/G                  HT/PER
                 (F)     (DEG/KT/KT) (MB)    (MI)  (FT/S)
CALUMET HARBOR    56     110/  8/ 11 1014.9S
MICHIGAN CITY     53      90/  3/  4   N/A
SAINT JOSEPH      54        CALM     1016.9R
SOUTH LAKE BUOY   57 62  130/ 10/ 14 1016.4S         2/ 5
4 MI NW BRIDGMAN  55 62  110/  8/ 12   N/A           2/ 2
MICHIGAN CITY     56 64  120/  6/ 10   N/A           2/ 2

$$
&&


USA.gov is the U.S. government's official web portal to all federal, state and local government web resources and services.